(458173) = 2010 MH33

Discovered at WISE on 2010-06-21 by WISE.

Orbit

Orbit type: Main Belt

Note: WebGL enabled browser required.

epoch2023-09-13.0
epoch JD2460200.5
perihelion date2019-08-29.05833
perihelion JD2458724.55833
argument of perihelion (°)236.14108
ascending node (°)177.10368
inclination (°)11.54626
eccentricity0.2575006
perihelion distance (AU)1.9576161
Tisserand w.r.t. Jupiter3.3
ΔV w.r.t. Earth (km/sec)9.5
semimajor axis (AU)2.6365223
mean anomaly (°)339.80195
mean daily motion (°/day)0.23022720
aphelion distance (AU)3.315
period (years)4.28
P-vector [x]0.59754875
P-vector [y]0.78580381
P-vector [z]0.15952385
Q-vector [x]-0.80176879
Q-vector [y]0.58304765
Q-vector [z]0.13123353
absolute magnitude17.51
phase slope0.15
uncertainty0
referenceMPEC 2024-A65
observations used201
oppositions9
arc length (days)6255
first opposition used2006
last opposition used2024
residual rms (arc-secs)0.61
perturbers coarse indicatorM-v
perturbers precise indicator003Ek
first observation date used2006-11-19.0
last observation date used2024-01-04.0
computer nameMPCLINUX
JD of orbit computation2457433.347603
perihelion JD uncertainty (days)1.5802E-04
argument of perihelion uncertainty (°)5.2930E-05
ascending node uncertainty (°)3.0644E-05
inclination uncertainty (°)1.0726E-05
eccentricity uncertainty 6.6970E-08
perihelion distance uncertainty (AU)1.6314E-07
Minimum Orbit Intersection Distances (in AU)
for orbit epoch: 2460200.5, reference: E2024-A48
Mercury1.64708
Venus1.24556
Earth0.99211
Mars0.55732
Jupiter2.17144
Saturn6.56688
Uranus15.4247
Neptune27.3742

Observations

206 total observations over interval: 2006 11 19.37431 – 2024 01 04.273986
These data are available for download (format description).

Date (UT) J2000 RA J2000 Dec Magn Location Ref
2006 11 19.37431 04 50 42.79 +01 40 51.6 19.9 V 703 – Catalina Sky Survey MPS 448784
2006 11 19.38028 04 50 42.64 +01 40 48.2 20.6 V 703 – Catalina Sky Survey MPS 448784
2006 11 19.38627 04 50 42.21 +01 40 46.1 20.6 V 703 – Catalina Sky Survey MPS 448784
2006 11 19.39227 04 50 42.07 +01 40 41.3 20.0 V 703 – Catalina Sky Survey MPS 448784
2008 04 08.32819 13 04 44.36 -00 46 18.3 21.9 V G96 – Mt. Lemmon Survey MPS 421915
2008 04 08.33484 13 04 44.00 -00 46 15.1 21.9 V G96 – Mt. Lemmon Survey MPS 421915
2008 04 08.34157 13 04 43.71 -00 46 12.1 21.8 V G96 – Mt. Lemmon Survey MPS 421915
2008 04 08.34825 13 04 43.39 -00 46 08.8 21.8 V G96 – Mt. Lemmon Survey MPS 421915
2010 06 20.889575 23 51 58.20 +04 35 04.4   C51 – WISE MPS 335473
2010 06 20.88958 23 51 58.22 +04 35 05.0   C51 – WISE MPS 335473
2010 06 21.021878 23 52 07.56 +04 35 48.5   C51 – WISE MPS 335473
2010 06 21.154183 23 52 16.90 +04 36 36.9   C51 – WISE MPS 335473
2010 06 21.418791 23 52 35.66 +04 38 07.3   C51 – WISE MPS 335473
2010 06 21.48488 23 52 40.37 +04 38 31.6   C51 – WISE MPS 335473
2010 06 21.48501 23 52 40.38 +04 38 33.0   C51 – WISE MPS 335473
2010 06 21.551094 23 52 45.08 +04 38 54.8   C51 – WISE MPS 335473
2010 06 21.617182 23 52 49.69 +04 39 17.1   C51 – WISE MPS 335473
2010 06 21.683397 23 52 54.49 +04 39 38.7   C51 – WISE MPS 335473
2010 06 21.749486 23 52 59.12 +04 40 02.1   C51 – WISE MPS 335473
2010 06 21.815701 23 53 03.73 +04 40 25.9   C51 – WISE MPS 335473
2010 06 21.881789 23 53 08.462 +04 40 47.50   C51 – WISE MPS 904473
2010 06 22.278701 23 53 36.36 +04 43 06.5   C51 – WISE MPS 335473
2010 06 22.411005 23 53 45.68 +04 43 51.7   C51 – WISE MPS 335473
2010 09 05.92310 00 34 44.15 +03 38 29.0 20.0 V A13 – Observatoire Naef, Ependes MPS 347194
2010 09 05.94426 00 34 43.71 +03 38 17.7 20.3 V A13 – Observatoire Naef, Ependes MPS 347194
2010 09 07.05808 00 34 21.01 +03 27 09.4 19.9 V J75 – OAM Observatory, La Sagra MPS 347194
2010 09 07.06436 00 34 20.86 +03 27 05.8 20.1 V J75 – OAM Observatory, La Sagra MPS 347194
2010 09 07.07095 00 34 20.64 +03 27 02.2 19.9 V J75 – OAM Observatory, La Sagra MPS 347194
2010 09 07.07725 00 34 20.53 +03 26 56.6 19.8 V J75 – OAM Observatory, La Sagra MPS 347194
2010 09 07.08383 00 34 20.40 +03 26 53.6 20.0 V J75 – OAM Observatory, La Sagra MPS 347194
2010 09 07.09012 00 34 20.18 +03 26 49.6 19.9 V J75 – OAM Observatory, La Sagra MPS 347194
2010 09 12.93663 00 31 54.63 +02 23 38.3 20.1 R J04 – ESA Optical Ground Station, Tenerife MPS 348145
2010 09 12.95804 00 31 53.99 +02 23 23.6 20.0 R J04 – ESA Optical Ground Station, Tenerife MPS 348145
2010 09 12.97945 00 31 53.32 +02 23 09.1 20.0 R J04 – ESA Optical Ground Station, Tenerife MPS 348145
2010 09 14.06019 00 31 21.36 +02 10 40.0 20.0 V J75 – OAM Observatory, La Sagra MPS 348145
2010 09 14.07308 00 31 20.89 +02 10 30.5 19.4 V J75 – OAM Observatory, La Sagra MPS 348145
2010 09 14.08591 00 31 20.45 +02 10 21.5 19.5 V J75 – OAM Observatory, La Sagra MPS 348145
2010 09 29.26505 00 22 11.74 -01 00 22.4 19.9 V 703 – Catalina Sky Survey MPS 349581
2010 09 29.27193 00 22 11.49 -01 00 29.4 19.1 V 703 – Catalina Sky Survey MPS 349581
2010 09 29.27881 00 22 11.17 -01 00 33.1 19.4 V 703 – Catalina Sky Survey MPS 349581
2010 09 29.28564 00 22 10.88 -01 00 39.5 19.5 V 703 – Catalina Sky Survey MPS 349581
2010 09 29.29685 00 22 10.34 -01 00 47.9 19.2 V G96 – Mt. Lemmon Survey MPS 349581
2010 09 29.30266 00 22 10.09 -01 00 52.3 19.2 V G96 – Mt. Lemmon Survey MPS 349581
2010 09 29.30847 00 22 09.84 -01 00 56.8 19.3 V G96 – Mt. Lemmon Survey MPS 349581
2010 09 29.31431 00 22 09.58 -01 01 01.5 19.3 V G96 – Mt. Lemmon Survey MPS 349581
2010 10 01.29799 00 20 50.25 -01 26 47.3 19.2   704 – Lincoln Laboratory ETS, New Mexico MPS 349581
2010 10 01.31243 00 20 49.65 -01 26 57.9 19.4   704 – Lincoln Laboratory ETS, New Mexico MPS 349581
2010 10 01.32561 00 20 49.06 -01 27 08.4 19.6   704 – Lincoln Laboratory ETS, New Mexico MPS 349581
2010 10 01.33872 00 20 48.45 -01 27 18.9 19.1   704 – Lincoln Laboratory ETS, New Mexico MPS 349581
2010 10 07.23524 00 16 55.76 -02 42 29.0 20.1   704 – Lincoln Laboratory ETS, New Mexico MPS 349581
2010 10 07.24855 00 16 55.23 -02 42 38.7 20.1   704 – Lincoln Laboratory ETS, New Mexico MPS 349581
2010 10 07.26189 00 16 54.79 -02 42 49.2 19.7   704 – Lincoln Laboratory ETS, New Mexico MPS 349581
2010 10 07.27554 00 16 54.12 -02 42 59.6 20.1   704 – Lincoln Laboratory ETS, New Mexico MPS 349581
2010 10 10.14852 00 15 06.29 -03 18 09.1 20.1 V 691 – Steward Observatory, Kitt Peak-Spacewatch MPS 351428
2010 10 10.16618 00 15 05.59 -03 18 21.8 20.0 V 691 – Steward Observatory, Kitt Peak-Spacewatch MPS 351428
2010 10 10.18147 00 15 05.00 -03 18 33.0 19.9 V 691 – Steward Observatory, Kitt Peak-Spacewatch MPS 351428
2010 10 11.23231 00 14 26.81 -03 31 03.9 19.5   704 – Lincoln Laboratory ETS, New Mexico MPS 351428
2010 10 11.24620 00 14 26.19 -03 31 14.1 20.0   704 – Lincoln Laboratory ETS, New Mexico MPS 351428
2010 10 11.25996 00 14 25.57 -03 31 23.6 20.1   704 – Lincoln Laboratory ETS, New Mexico MPS 351428
2010 10 11.27368 00 14 25.19 -03 31 32.7 19.9   704 – Lincoln Laboratory ETS, New Mexico MPS 351428
2010 10 11.28741 00 14 24.57 -03 31 43.7 20.0   704 – Lincoln Laboratory ETS, New Mexico MPS 351428
2012 03 13.25045 11 38 45.16 +01 12 53.8 21.0 V G96 – Mt. Lemmon Survey MPS 421915
2012 03 13.25972 11 38 44.66 +01 12 58.2 21.2 V G96 – Mt. Lemmon Survey MPS 421915
2012 03 13.26906 11 38 44.19 +01 13 03.2 21.2 V G96 – Mt. Lemmon Survey MPS 421915
2012 03 13.27833 11 38 43.72 +01 13 08.5 21.2 V G96 – Mt. Lemmon Survey MPS 421915
2012 04 20.20301 11 15 26.64 +05 56 47.4 21.4 V G96 – Mt. Lemmon Survey MPS 421915
2012 04 20.21001 11 15 26.53 +05 56 49.2 22.4 V G96 – Mt. Lemmon Survey MPS 421915
2012 04 20.21701 11 15 26.42 +05 56 51.1 22.5 V G96 – Mt. Lemmon Survey MPS 421915
2012 04 20.22403 11 15 26.31 +05 56 53.0 22.2 V G96 – Mt. Lemmon Survey MPS 421915
2014 08 21.34864 21 14 49.325 -04 29 23.64 20.7 w F51 – Pan-STARRS 1, Haleakala MPS 527092
2014 08 21.36150 21 14 48.658 -04 29 30.33 20.6 w F51 – Pan-STARRS 1, Haleakala MPS 527092
2016 01 11.56229 10 03 19.125 -00 16 57.74 21.0 w F51 – Pan-STARRS 1, Haleakala MPS 668466
2016 01 11.57571 10 03 18.785 -00 16 55.56 21.1 w F51 – Pan-STARRS 1, Haleakala MPS 668466
2016 01 11.58907 10 03 18.435 -00 16 53.48 21.1 w F51 – Pan-STARRS 1, Haleakala MPS 668466
2016 01 11.60242 10 03 18.089 -00 16 51.41 21.1 w F51 – Pan-STARRS 1, Haleakala MPS 668466
2016 01 17.51696 10 00 29.342 +00 03 04.75 20.9 w F51 – Pan-STARRS 1, Haleakala MPS 671860
2016 01 17.53025 10 00 28.876 +00 03 08.07 20.9 w F51 – Pan-STARRS 1, Haleakala MPS 671860
2016 01 17.54360 10 00 28.399 +00 03 11.38 20.9 w F51 – Pan-STARRS 1, Haleakala MPS 671860
2016 01 17.55688 10 00 27.934 +00 03 14.63 21.0 w F51 – Pan-STARRS 1, Haleakala MPS 671860
2016 01 29.44479 09 52 26.390 +01 09 11.02 20.7 r F51 – Pan-STARRS 1, Haleakala MPS 675317
2016 01 29.45726 09 52 25.779 +01 09 16.18 20.8 r F51 – Pan-STARRS 1, Haleakala MPS 675317
2016 01 29.46909 09 52 25.205 +01 09 21.03 20.5 r F51 – Pan-STARRS 1, Haleakala MPS 675317
2016 01 29.48127 09 52 24.602 +01 09 26.11 20.7 r F51 – Pan-STARRS 1, Haleakala MPS 675317
2016 02 05.44330 09 46 40.457 +02 02 09.28 20.7 w F51 – Pan-STARRS 1, Haleakala MPS 679126
2016 02 05.45616 09 46 39.763 +02 02 15.56 20.8 w F51 – Pan-STARRS 1, Haleakala MPS 679126
2016 02 05.46905 09 46 39.073 +02 02 21.80 20.7 w F51 – Pan-STARRS 1, Haleakala MPS 679126
2016 02 05.48195 09 46 38.383 +02 02 28.14 20.8 w F51 – Pan-STARRS 1, Haleakala MPS 679126
2016 02 06.43049 09 45 49.554 +02 10 19.12 20.7 w F51 – Pan-STARRS 1, Haleakala MPS 679126
2016 02 06.44233 09 45 48.912 +02 10 25.06 20.6 w F51 – Pan-STARRS 1, Haleakala MPS 679126
2016 02 06.45425 09 45 48.267 +02 10 31.03 20.7 w F51 – Pan-STARRS 1, Haleakala MPS 679126
2016 02 06.46623 09 45 47.619 +02 10 37.06 20.6 w F51 – Pan-STARRS 1, Haleakala MPS 679126
2016 02 14.38437 09 38 53.620 +03 20 49.16 20.6 r F51 – Pan-STARRS 1, Haleakala MPS 682584
2016 02 14.39744 09 38 52.916 +03 20 56.53 20.4 r F51 – Pan-STARRS 1, Haleakala MPS 682584
2016 02 14.42412 09 38 51.459 +03 21 11.41 20.4 r F51 – Pan-STARRS 1, Haleakala MPS 682584
